Sarnia, Ontario

11:45 PM EDT on July 27, 2017 (GMT -0400)
Sarnia (Hadfield)

Weather History for CYZR - May, 2013

Change the Weather History Date:

Thursday, May 30, 2013

  Actual Average Record
Temperature  
Mean Temperature 68 °F -  
Max Temperature 84 °F 72 °F 95 °F (1987)
Min Temperature 53 °F 56 °F 37 °F (1961)
Cooling Degree Days 4    
Growing Degree Days 18 (Base 50)    
Moisture  
Dew Point 66 °F    
Average Humidity 81    
Maximum Humidity 100    
Minimum Humidity 58    
Precipitation  
Precipitation 0.08 in 0.10 in - ()
Sea Level Pressure  
Sea Level Pressure 30.02 in    
Wind  
Wind Speed 8 mph ()    
Max Wind Speed 29 mph    
Max Gust Speed 36 mph    
Visibility 8.6 miles    
Events Rain , Thunderstorm    
Averages and records for this station are not official NWS values.
T = Trace of Precipitation, MM = Missing Value Source: Averaged Metar Reports

Daily Weather History Graph

Daily Weather History Graph

Search for Another Location

Airport or City:

Trip Planner

Search our weather history database for the weather conditions in past years. The results will help you decide how hot, cold, wet, or windy it might be!

Date:

Astronomy

May. 30, 2013 Rise Set
Actual Time 5:53 AM EDT 9:00 PM EDT
Civil Twilight 5:19 AM EDT 9:34 PM EDT
Nautical Twilight 4:35 AM EDT 10:18 PM EDT
Astronomical Twilight 3:43 AM EDT 11:11 PM EDT
Moon 12:55 AM EDT (5/30) 12:06 PM EDT (5/30)
Length of Visible Light 16h 15m
Length of Day
15h 06m
Waning Gibbous, 62% of the Moon is Illuminated
May 30
Waning Gibbous
May 31
Last Quarter
Jun 8
New
Jun 16
First Quarter
Jun 23
Full

Hourly Weather History & Observations

Time (EDT) Temp. Heat Index Dew Point Humidity Pressure Visibility Wind Dir Wind Speed Gust Speed Precip Events Conditions
2:00 AM 54 °F - 53 °F 93% 30.03 in - SSE 4.6 mph - -  
8:00 AM 55 °F - 54 °F 94% 29.96 in - South 2.3 mph - -  
10:00 AM 78.8 °F - 66.2 °F 65% 30.06 in 9.0 mi SSW 10.4 mph 17.3 mph N/A   Unknown
11:00 AM 78.8 °F - 66.2 °F 65% 30.06 in 9.0 mi SSW 10.4 mph - N/A   Partly Cloudy
12:00 PM 80.6 °F 83.2 °F 68.0 °F 65% 30.05 in 9.0 mi South 9.2 mph - N/A   Clear
1:00 PM 82.4 °F 85.4 °F 68.0 °F 62% 30.05 in 9.0 mi South 10.4 mph 20.7 mph N/A   Clear
2:00 PM 63 °F - 57 °F 76% 29.92 in - West 2.3 mph - -  
2:00 PM 84.2 °F 87.3 °F 68.0 °F 58% 30.03 in 9.0 mi SSW 11.5 mph 20.7 mph N/A   Clear
3:00 PM 84.2 °F 87.3 °F 68.0 °F 58% 30.01 in 9.0 mi South 15.0 mph 23.0 mph N/A   Clear
3:38 PM 84.2 °F 87.3 °F 68.0 °F 58% 30.03 in 9.0 mi SSW 17.3 mph 25.3 mph N/A Thunderstorm Scattered Clouds
3:46 PM 82.4 °F 85.4 °F 68.0 °F 62% 30.04 in 9.0 mi SW 18.4 mph 24.2 mph N/A Thunderstorm Thunderstorm
3:55 PM 71.6 °F - 60.8 °F 69% 30.07 in 8.0 mi West 28.8 mph 35.7 mph N/A Rain , Thunderstorm Light Thunderstorms and Rain
4:00 PM 66.2 °F - 62.6 °F 88% 30.07 in 5.0 mi North - - N/A Rain , Thunderstorm Thunderstorms and Rain
4:01 PM 66.2 °F - 62.6 °F 88% 30.07 in 5.0 mi North - - N/A Rain , Thunderstorm Heavy Thunderstorms and Rain
4:11 PM 66.2 °F - 64.4 °F 94% 30.06 in 7.0 mi North - - N/A Rain , Thunderstorm Heavy Thunderstorms and Rain
4:15 PM 66.2 °F - 66.2 °F 100% 30.06 in 7.0 mi North - - N/A Rain , Thunderstorm Thunderstorms and Rain
4:44 PM 69.8 °F - 68.0 °F 94% 30.03 in 9.0 mi North - - N/A Rain , Thunderstorm Light Rain
4:48 PM 69.8 °F - 68.0 °F 94% 30.03 in 9.0 mi North - - N/A Thunderstorm Overcast
4:59 PM 69.8 °F - 68.0 °F 94% 30.02 in 9.0 mi North - - N/A   Overcast
5:00 PM 69.8 °F - 68.0 °F 94% 30.02 in 9.0 mi North - - N/A Thunderstorm Overcast
5:16 PM 69.8 °F - 68.0 °F 94% 30.01 in 9.0 mi North - - N/A   Overcast
6:00 PM 75.2 °F - 71.6 °F 89% 30.00 in 9.0 mi North - - N/A   Scattered Clouds
7:00 PM 78.8 °F - 69.8 °F 74% 30.00 in 9.0 mi North - - N/A   Scattered Clouds
7:07 PM 78.8 °F - 69.8 °F 74% 30.00 in 9.0 mi North - - N/A Thunderstorm Mostly Cloudy
7:20 PM 77.0 °F - 69.8 °F 78% 30.01 in 9.0 mi North - - N/A Rain , Thunderstorm Light Rain
7:42 PM 77.0 °F - 68.0 °F 74% 30.01 in 9.0 mi North - - N/A Rain Light Rain
8:00 PM 64 °F - 58 °F 74% 29.95 in - WSW 2.3 mph - -  
8:00 PM 73.4 °F - 69.8 °F 88% 30.00 in 9.0 mi North - - N/A Rain Light Rain
8:18 PM 73.4 °F - 68.0 °F 83% 29.99 in 9.0 mi North - - N/A   Mostly Cloudy
9:00 PM 71.6 °F - 68.0 °F 88% 30.00 in 9.0 mi North - - N/A   Mostly Cloudy
9:57 PM 71.6 °F - 66.2 °F 83% 30.03 in 9.0 mi North - - N/A Rain Light Rain
10:00 PM 71.6 °F - 66.2 °F 83% 30.02 in 9.0 mi North - - N/A Rain Light Rain
10:50 PM 69.8 °F - 66.2 °F 88% 30.00 in 9.0 mi North - - N/A   Mostly Cloudy
11:00 PM 69.8 °F - 66.2 °F 88% 30.00 in 9.0 mi North - - N/A   Mostly Cloudy
11:42 PM 69.8 °F - 66.2 °F 88% 30.01 in 9.0 mi North - - N/A Rain Light Rain
11:51 PM 69.8 °F - 66.2 °F 88% 30.01 in 9.0 mi North - - N/A   Mostly Cloudy